• In Uzbekistan
  • List of Countries
  • For 7 days
  • Water Temperature
  • Satellite Maps
  • Weather Map
  • Weather Widgets
  • user-avatar
    Login

    Hourly Weather Gold Coast

    Today, 16 January, Monday

    Time Temperature Precipitation Wind Pressure Humidity
    00:00 +25°C° 0.2 mm 2 mps 756 mmHg 94%
    01:00 +25°C° 0.2 mm 2 mps 756 mmHg 94%
    02:00 +25°C° 0 mm 2 mps 756 mmHg 94%
    03:00 +25°C° 0 mm 2 mps 756 mmHg 94%
    04:00 +24°C° 0 mm 3 mps 756 mmHg 94%
    05:00 +25°C° 0 mm 3 mps 756 mmHg 92%
    06:00 +25°C° 0 mm 3 mps 757 mmHg 91%
    07:00 +26°C° 0 mm 3 mps 757 mmHg 89%
    08:00 +27°C° 0 mm 2 mps 757 mmHg 81%
    09:00 +29°C° 0 mm 2 mps 757 mmHg 72%
    10:00 +31°C° 0 mm 2 mps 757 mmHg 64%
    11:00 +31°C° 0 mm 2 mps 757 mmHg 63%
    12:00 +33°C° 0 mm 3 mps 757 mmHg 61%
    13:00 +33°C° 0 mm 3 mps 757 mmHg 59%
    14:00 +33°C° 0.1 mm 4 mps 757 mmHg 62%
    15:00 +32°C° 0.1 mm 4 mps 756 mmHg 66%
    16:00 +32°C° 0.1 mm 4 mps 756 mmHg 69%
    17:00 +29°C° 0 mm 4 mps 757 mmHg 75%
    18:00 +28°C° 0 mm 4 mps 757 mmHg 80%
    19:00 +26°C° 0 mm 3 mps 758 mmHg 86%
    20:00 +26°C° 0 mm 3 mps 758 mmHg 88%
    21:00 +25°C° 0 mm 3 mps 758 mmHg 90%
    22:00 +24°C° 0 mm 2 mps 758 mmHg 93%
    23:00 +24°C° 0 mm 2 mps 758 mmHg 93%

    Tomorrow, 17 January, Tuesday

    Time Temperature Precipitation Wind Pressure Humidity
    00:00 +23°C° 0 mm 2 mps 758 mmHg 94%
    01:00 +23°C° 0 mm 1 mps 758 mmHg 95%
    02:00 +22°C° 0 mm 1 mps 758 mmHg 95%
    03:00 +22°C° 0 mm 1 mps 758 mmHg 95%
    04:00 +22°C° 0 mm 1 mps 758 mmHg 95%
    05:00 +24°C° 0 mm 1 mps 758 mmHg 91%
    06:00 +25°C° 0 mm 1 mps 758 mmHg 87%
    07:00 +27°C° 0 mm 1 mps 759 mmHg 83%
    08:00 +28°C° 0 mm 1 mps 759 mmHg 74%
    09:00 +30°C° 0 mm 2 mps 759 mmHg 66%
    10:00 +32°C° 0 mm 2 mps 759 mmHg 57%
    11:00 +34°C° 0 mm 3 mps 758 mmHg 55%
    12:00 +34°C° 0 mm 4 mps 758 mmHg 53%
    13:00 +35°C° 0 mm 4 mps 757 mmHg 51%
    14:00 +34°C° 0 mm 5 mps 757 mmHg 54%
    15:00 +34°C° 0 mm 5 mps 757 mmHg 58%
    16:00 +33°C° 0 mm 5 mps 756 mmHg 62%
    17:00 +30°C° 0 mm 5 mps 756 mmHg 69%
    18:00 +29°C° 0 mm 5 mps 757 mmHg 76%
    19:00 +27°C° 0 mm 4 mps 757 mmHg 82%
    20:00 +26°C° 0 mm 4 mps 757 mmHg 85%
    21:00 +25°C° 0 mm 4 mps 758 mmHg 88%
    22:00 +23°C° 0 mm 4 mps 758 mmHg 91%
    23:00 +23°C° 0 mm 4 mps 758 mmHg 92%

    Day after tomorrow, 18 January, Wednesday

    Time Temperature Precipitation Wind Pressure Humidity
    00:00 +23°C° 0 mm 4 mps 757 mmHg 93%
    01:00 +23°C° 0 mm 4 mps 757 mmHg 93%
    02:00 +22°C° 0 mm 4 mps 757 mmHg 93%
    03:00 +22°C° 0 mm 4 mps 756 mmHg 92%
    04:00 +22°C° 0 mm 4 mps 756 mmHg 92%
    05:00 +23°C° 0 mm 4 mps 756 mmHg 86%
    06:00 +25°C° 0 mm 5 mps 757 mmHg 81%
    07:00 +26°C° 0 mm 5 mps 757 mmHg 75%
    08:00 +28°C° 0 mm 5 mps 757 mmHg 66%
    09:00 +32°C° 0 mm 5 mps 756 mmHg 57%
    10:00 +34°C° 0 mm 5 mps 756 mmHg 48%
    11:00 +36°C° 0 mm 5 mps 755 mmHg 44%
    12:00 +37°C° 0 mm 5 mps 755 mmHg 40%
    13:00 +40°C° 0 mm 6 mps 754 mmHg 36%
    14:00 +39°C° 0 mm 6 mps 753 mmHg 39%
    15:00 +39°C° 0 mm 7 mps 753 mmHg 42%
    16:00 +38°C° 0 mm 7 mps 752 mmHg 45%
    17:00 +35°C° 0 mm 7 mps 752 mmHg 54%
    18:00 +33°C° 0 mm 7 mps 753 mmHg 63%
    19:00 +29°C° 0 mm 6 mps 753 mmHg 71%
    20:00 +29°C° 0 mm 6 mps 753 mmHg 75%
    21:00 +28°C° 0 mm 6 mps 753 mmHg 79%
    22:00 +27°C° 0 mm 6 mps 754 mmHg 83%
    23:00 +27°C° 0 mm 6 mps 753 mmHg 84%

    19 January, Thursday

    Time Temperature Precipitation Wind Pressure Humidity
    00:00 +26°C° 0 mm 5 mps 753 mmHg 85%
    01:00 +26°C° 0 mm 5 mps 752 mmHg 86%
    02:00 +26°C° 0 mm 5 mps 752 mmHg 85%
    03:00 +25°C° 0 mm 5 mps 752 mmHg 85%
    04:00 +25°C° 0 mm 5 mps 752 mmHg 84%
    05:00 +26°C° 0 mm 5 mps 753 mmHg 83%
    06:00 +27°C° 0 mm 5 mps 753 mmHg 81%
    07:00 +27°C° 0 mm 5 mps 754 mmHg 80%
    08:00 +29°C° 0 mm 5 mps 754 mmHg 75%
    09:00 +30°C° 0 mm 6 mps 754 mmHg 71%
    10:00 +32°C° 0 mm 6 mps 754 mmHg 66%
    11:00 +33°C° 0 mm 6 mps 754 mmHg 64%
    12:00 +33°C° 0 mm 7 mps 753 mmHg 63%
    13:00 +34°C° 0 mm 7 mps 753 mmHg 61%
    14:00 +33°C° 0 mm 7 mps 753 mmHg 63%
    15:00 +32°C° 0 mm 7 mps 752 mmHg 65%
    16:00 +32°C° 0 mm 8 mps 752 mmHg 67%
    17:00 +29°C° 0.1 mm 7 mps 752 mmHg 72%
    18:00 +28°C° 0.1 mm 7 mps 753 mmHg 78%
    19:00 +26°C° 0.1 mm 7 mps 753 mmHg 83%
    20:00 +26°C° 0.2 mm 7 mps 754 mmHg 85%
    21:00 +24°C° 0.2 mm 6 mps 754 mmHg 88%
    22:00 +24°C° 0.2 mm 6 mps 755 mmHg 90%
    23:00 +25°C° 0.1 mm 5 mps 754 mmHg 90%

    20 January, Friday

    Time Temperature Precipitation Wind Pressure Humidity
    00:00 +25°C° 0.1 mm 5 mps 754 mmHg 90%
    01:00 +25°C° 0.1 mm 4 mps 754 mmHg 90%
    02:00 +23°C° 0.1 mm 4 mps 753 mmHg 92%
    03:00 +24°C° 0.1 mm 3 mps 753 mmHg 93%
    04:00 +22°C° 0.1 mm 3 mps 753 mmHg 95%
    05:00 +24°C° 0 mm 3 mps 753 mmHg 90%
    06:00 +25°C° 0 mm 2 mps 754 mmHg 86%
    07:00 +26°C° 0 mm 2 mps 754 mmHg 82%
    08:00 +28°C° 0 mm 2 mps 754 mmHg 75%
    09:00 +30°C° 0 mm 2 mps 754 mmHg 67%
    10:00 +31°C° 0 mm 1 mps 754 mmHg 60%
    11:00 +32°C° 0 mm 2 mps 753 mmHg 58%
    12:00 +34°C° 0 mm 3 mps 753 mmHg 56%
    13:00 +36°C° 0 mm 3 mps 752 mmHg 54%
    14:00 +35°C° 0.3 mm 4 mps 752 mmHg 57%
    15:00 +35°C° 0.3 mm 4 mps 751 mmHg 60%
    16:00 +35°C° 0.3 mm 5 mps 751 mmHg 63%
    17:00 +33°C° 0.7 mm 5 mps 751 mmHg 72%
    18:00 +30°C° 0.7 mm 5 mps 751 mmHg 80%
    19:00 +28°C° 0.7 mm 5 mps 752 mmHg 88%
    20:00 +27°C° 0.2 mm 5 mps 752 mmHg 90%
    21:00 +27°C° 0.2 mm 5 mps 752 mmHg 92%
    22:00 +27°C° 0.2 mm 4 mps 752 mmHg 94%
    23:00 +27°C° 0.1 mm 4 mps 752 mmHg 94%

    21 January, Saturday

    Time Temperature Precipitation Wind Pressure Humidity
    00:00 +27°C° 0.1 mm 4 mps 751 mmHg 95%
    01:00 +27°C° 0.1 mm 4 mps 751 mmHg 95%
    02:00 +27°C° 0 mm 4 mps 751 mmHg 95%
    03:00 +26°C° 0 mm 4 mps 751 mmHg 95%
    04:00 +26°C° 0 mm 4 mps 751 mmHg 95%
    05:00 +27°C° 0 mm 4 mps 751 mmHg 91%
    06:00 +28°C° 0 mm 4 mps 751 mmHg 87%
    07:00 +29°C° 0 mm 4 mps 752 mmHg 83%
    08:00 +32°C° 0 mm 4 mps 751 mmHg 72%
    09:00 +35°C° 0 mm 4 mps 751 mmHg 62%
    10:00 +37°C° 0 mm 4 mps 751 mmHg 51%
    11:00 +38°C° 0.2 mm 4 mps 751 mmHg 50%
    12:00 +40°C° 0.2 mm 4 mps 750 mmHg 49%
    13:00 +40°C° 0.2 mm 4 mps 750 mmHg 48%
    14:00 +37°C° 1.7 mm 4 mps 750 mmHg 58%
    15:00 +35°C° 1.7 mm 4 mps 750 mmHg 67%
    16:00 +33°C° 1.7 mm 4 mps 750 mmHg 77%
    17:00 +32°C° 2.5 mm 4 mps 751 mmHg 81%
    18:00 +29°C° 2.5 mm 4 mps 751 mmHg 85%
    19:00 +28°C° 2.5 mm 4 mps 752 mmHg 88%
    20:00 +28°C° 0.7 mm 5 mps 752 mmHg 90%
    21:00 +28°C° 0.7 mm 5 mps 752 mmHg 91%
    22:00 +27°C° 0.7 mm 5 mps 752 mmHg 92%
    23:00 +27°C° 0.6 mm 6 mps 752 mmHg 92%
    Show more